| time (UTC) | temp F | wind direction | speed knots | gust knots | rain 1hr in | rain 24hr in | rain mn in | humidity % | barometer mb |
| 20260506051054 | 30 | 273 | 1.7 | 2.6 | 0.00 | 0.00 | 0.00 | 56 | 986.4 |
| 20260506050554 | 30 | 266 | 0.9 | 2.6 | 0.00 | 0.00 | 0.00 | 56 | 986.4 |
| 20260506045054 | 29 | 269 | 1.7 | 3.5 | 0.00 | 0.00 | 0.00 | 56 | 986.5 |
| 20260506044604 | 30 | 290 | 0.9 | 3.5 | 0.00 | 0.00 | 0.00 | 56 | 986.4 |
| 20260506044052 | 30 | 281 | 0.9 | 3.5 | 0.00 | 0.00 | 0.00 | 56 | 986.5 |
| 20260506043556 | 30 | 280 | 1.7 | 3.5 | 0.00 | 0.00 | 0.00 | 56 | 986.5 |
| 20260506043054 | 30 | 265 | 1.7 | 5.2 | 0.00 | 0.00 | 0.00 | 56 | 986.6 |
| 20260506042552 | 30 | 271 | 1.7 | 5.2 | 0.00 | 0.00 | 0.00 | 56 | 986.5 |
| 20260506042052 | 30 | 289 | 1.7 | 3.5 | 0.00 | 0.00 | 0.00 | 56 | 986.5 |
| 20260506041605 | 30 | 288 | 1.7 | 3.5 | 0.00 | 0.00 | 0.00 | 56 | 986.5 |
| 20260506041054 | 30 | 289 | 1.7 | 3.5 | 0.00 | 0.00 | 0.00 | 56 | 986.5 |
| 20260506040551 | 31 | 293 | 1.7 | 3.5 | 0.00 | 0.00 | 0.00 | 56 | 986.6 |
| 20260506040055 | 31 | 288 | 1.7 | 3.5 | 0.00 | 0.00 | 0.00 | 56 | 986.6 |
| 20260506035551 | 31 | 302 | 2.6 | 4.3 | 0.00 | 0.00 | 0.00 | 55 | 986.6 |
| 20260506035052 | 31 | 305 | 2.6 | 4.3 | 0.00 | 0.00 | 0.00 | 55 | 986.6 |
| 20260506034551 | 31 | 286 | 2.6 | 4.3 | 0.00 | 0.00 | 0.00 | 55 | 986.5 |
| 20260506034050 | 32 | 290 | 1.7 | 4.3 | 0.00 | 0.00 | 0.00 | 55 | 986.6 |
| 20260506033550 | 32 | 277 | 1.7 | 5.2 | 0.00 | 0.00 | 0.00 | 55 | 986.6 |
| 20260506033052 | 32 | 315 | 2.6 | 5.2 | 0.00 | 0.00 | 0.00 | 54 | 986.6 |
| 20260506032550 | 32 | 302 | 2.6 | 5.2 | 0.00 | 0.00 | 0.00 | 54 | 986.5 |
| 20260506032050 | 32 | 295 | 1.7 | 4.3 | 0.00 | 0.00 | 0.00 | 54 | 986.5 |
| 20260506031549 | 32 | 329 | 1.7 | 4.3 | 0.00 | 0.00 | 0.00 | 54 | 986.6 |
| 20260506031051 | 32 | 307 | 2.6 | 4.3 | 0.00 | 0.00 | 0.00 | 54 | 986.5 |
| 20260506030547 | 32 | 308 | 1.7 | 4.3 | 0.00 | 0.00 | 0.00 | 54 | 986.4 |
| 20260506030047 | 33 | 291 | 2.6 | 5.2 | 0.00 | 0.00 | 0.00 | 53 | 986.5 |
| 20260506025548 | 33 | 320 | 3.5 | 5.2 | 0.00 | 0.00 | 0.00 | 52 | 986.4 |
| 20260506025047 | 33 | 307 | 2.6 | 5.2 | 0.00 | 0.00 | 0.00 | 52 | 986.5 |
| 20260506024547 | 33 | 323 | 2.6 | 7.0 | 0.00 | 0.00 | 0.00 | 52 | 986.4 |
| 20260506024049 | 33 | 331 | 2.6 | 7.0 | 0.00 | 0.00 | 0.00 | 52 | 986.4 |
| 20260506023547 | 33 | 328 | 4.3 | 7.8 | 0.00 | 0.00 | 0.00 | 52 | 986.4 |
| 20260506023053 | 34 | 310 | 3.5 | 8.7 | 0.00 | 0.00 | 0.00 | 51 | 986.4 |
| 20260506022546 | 34 | 346 | 4.3 | 7.8 | 0.00 | 0.00 | 0.00 | 51 | 986.3 |
| 20260506022045 | 34 | 325 | 3.5 | 8.7 | 0.00 | 0.00 | 0.00 | 50 | 986.3 |
| 20260506021544 | 34 | 333 | 5.2 | 10.4 | 0.00 | 0.00 | 0.00 | 50 | 986.3 |
| 20260506021046 | 34 | 326 | 7.0 | 10.4 | 0.00 | 0.00 | 0.00 | 49 | 986.1 |
| 20260506020544 | 35 | 306 | 5.2 | 9.6 | 0.00 | 0.00 | 0.00 | 49 | 986.2 |
| 20260506020113 | 35 | 298 | 3.5 | 9.6 | 0.00 | 0.00 | 0.00 | 49 | 986.1 |
| 20260506015546 | 35 | 338 | 5.2 | 9.6 | 0.00 | 0.00 | 0.00 | 48 | 986.1 |
| 20260506015044 | 35 | 313 | 6.1 | 11.3 | 0.00 | 0.00 | 0.00 | 48 | 986.0 |
| 20260506014544 | 35 | 305 | 7.0 | 11.3 | 0.00 | 0.00 | 0.00 | 48 | 985.9 |
| 20260506014042 | 35 | 310 | 6.1 | 9.6 | 0.00 | 0.00 | 0.00 | 48 | 985.9 |
| 20260506013542 | 35 | 322 | 4.3 | 11.3 | 0.00 | 0.00 | 0.00 | 48 | 985.8 |
| 20260506013041 | 35 | 305 | 7.8 | 11.3 | 0.00 | 0.00 | 0.00 | 48 | 985.8 |
| 20260506012541 | 36 | 343 | 7.0 | 12.2 | 0.00 | 0.00 | 0.00 | 48 | 985.8 |
| 20260506012041 | 36 | 341 | 7.0 | 13.0 | 0.00 | 0.00 | 0.00 | 48 | 985.7 |
| 20260506011545 | 36 | 328 | 8.7 | 13.0 | 0.00 | 0.00 | 0.00 | 48 | 985.6 |
| 20260506011040 | 36 | 316 | 7.0 | 12.2 | 0.00 | 0.00 | 0.00 | 48 | 985.7 |
| 20260506010539 | 36 | 344 | 7.0 | 12.2 | 0.00 | 0.00 | 0.00 | 48 | 985.6 |
| 20260506010039 | 36 | 295 | 7.0 | 12.2 | 0.00 | 0.00 | 0.00 | 48 | 985.6 |
| 20260506005539 | 36 | 340 | 7.0 | 13.9 | 0.00 | 0.00 | 0.00 | 47 | 985.5 |
| 20260506005038 | 36 | 335 | 7.0 | 13.9 | 0.00 | 0.00 | 0.00 | 47 | 985.4 |
| 20260506004542 | 36 | 319 | 7.8 | 14.8 | 0.00 | 0.00 | 0.00 | 47 | 985.4 |
| 20260506004037 | 36 | 324 | 9.6 | 17.4 | 0.00 | 0.00 | 0.00 | 46 | 985.4 |
| 20260506003537 | 36 | 303 | 8.7 | 15.6 | 0.00 | 0.00 | 0.00 | 46 | 985.3 |
| 20260506003038 | 36 | 341 | 7.8 | 15.6 | 0.00 | 0.00 | 0.00 | 46 | 985.3 |
| 20260506002538 | 36 | 282 | 7.8 | 13.9 | 0.00 | 0.00 | 0.00 | 47 | 985.3 |
| 20260506002037 | 36 | 336 | 8.7 | 13.9 | 0.00 | 0.00 | 0.00 | 47 | 985.3 |
| 20260506001545 | 36 | 301 | 8.7 | 15.6 | 0.00 | 0.00 | 0.00 | 47 | 985.3 |
| 20260506001036 | 37 | 303 | 10.4 | 15.6 | 0.00 | 0.00 | 0.00 | 46 | 985.3 |
| 20260506000536 | 37 | 321 | 10.4 | 18.2 | 0.00 | 0.00 | 0.00 | 46 | 985.2 |
| 20260506000052 | 37 | 336 | 7.8 | 14.8 | 0.00 | 0.00 | 0.00 | 46 | 985.3 |
| 20260505235538 | 37 | 304 | 9.6 | 15.6 | 0.00 | 0.00 | 0.00 | 45 | 985.2 |
| 20260505235037 | 37 | 309 | 10.4 | 15.6 | 0.00 | 0.00 | 0.00 | 44 | 985.2 |
| 20260505234540 | 37 | 307 | 9.6 | 14.8 | 0.00 | 0.00 | 0.00 | 44 | 985.2 |
| 20260505234034 | 37 | 320 | 9.6 | 13.9 | 0.00 | 0.00 | 0.00 | 43 | 985.0 |
| 20260505233533 | 37 | 311 | 7.8 | 13.9 | 0.00 | 0.00 | 0.00 | 44 | 985.1 |
| 20260505233034 | 37 | 299 | 7.8 | 13.9 | 0.00 | 0.00 | 0.00 | 44 | 985.0 |
| 20260505232537 | 37 | 297 | 7.8 | 13.9 | 0.00 | 0.00 | 0.00 | 44 | 985.1 |
| 20260505232033 | 37 | 327 | 5.2 | 13.0 | 0.00 | 0.00 | 0.00 | 45 | 985.0 |
| 20260505231532 | 37 | 12 | 3.5 | 12.2 | 0.00 | 0.00 | 0.00 | 44 | 985.1 |
| 20260505231033 | 37 | 17 | 5.2 | 12.2 | 0.00 | 0.00 | 0.00 | 45 | 985.1 |
| 20260505230532 | 37 | 344 | 5.2 | 12.2 | 0.00 | 0.00 | 0.00 | 45 | 985.2 |
| 20260505230041 | 37 | 40 | 6.1 | 12.2 | 0.00 | 0.00 | 0.00 | 45 | 985.1 |
| 20260505225532 | 37 | 351 | 7.8 | 12.2 | 0.00 | 0.00 | 0.00 | 45 | 985.1 |
| 20260505225032 | 37 | 336 | 8.7 | 12.2 | 0.00 | 0.00 | 0.00 | 45 | 985.0 |
| 20260505224542 | 37 | 350 | 7.0 | 13.9 | 0.00 | 0.00 | 0.00 | 45 | 985.0 |
| 20260505224031 | 37 | 330 | 9.6 | 14.8 | 0.00 | 0.00 | 0.00 | 45 | 985.1 |
| 20260505223531 | 37 | 320 | 8.7 | 14.8 | 0.00 | 0.00 | 0.00 | 46 | 985.1 |
| 20260505223037 | 37 | 350 | 7.8 | 13.9 | 0.00 | 0.00 | 0.00 | 46 | 985.1 |
| 20260505222532 | 37 | 292 | 9.6 | 16.5 | 0.00 | 0.00 | 0.00 | 45 | 985.0 |
| 20260505222033 | 37 | 323 | 9.6 | 16.5 | 0.00 | 0.00 | 0.00 | 45 | 984.9 |
| 20260505221531 | 37 | 302 | 8.7 | 16.5 | 0.00 | 0.00 | 0.00 | 45 | 984.9 |
| 20260505221030 | 37 | 300 | 9.6 | 16.5 | 0.00 | 0.00 | 0.00 | 45 | 984.8 |
| 20260505220530 | 38 | 321 | 8.7 | 14.8 | 0.00 | 0.00 | 0.00 | 45 | 984.7 |
| 20260505220029 | 38 | 322 | 9.6 | 14.8 | 0.00 | 0.00 | 0.00 | 46 | 984.8 |
| 20260505215530 | 37 | 351 | 6.1 | 14.8 | 0.00 | 0.00 | 0.00 | 47 | 984.8 |
| 20260505215027 | 36 | 317 | 10.4 | 15.6 | 0.00 | 0.00 | 0.00 | 47 | 984.9 |
| 20260505214527 | 36 | 318 | 9.6 | 15.6 | 0.00 | 0.00 | 0.00 | 47 | 985.0 |
| 20260505214029 | 36 | 316 | 8.7 | 13.9 | 0.00 | 0.00 | 0.00 | 47 | 985.0 |
| 20260505213525 | 36 | 312 | 7.8 | 14.8 | 0.00 | 0.00 | 0.00 | 48 | 985.0 |
| 20260505213028 | 36 | 319 | 9.6 | 16.5 | 0.00 | 0.00 | 0.00 | 47 | 984.9 |
| 20260505212526 | 36 | 346 | 11.3 | 16.5 | 0.00 | 0.00 | 0.00 | 47 | 984.9 |
| 20260505212026 | 36 | 319 | 8.7 | 17.4 | 0.00 | 0.00 | 0.00 | 47 | 984.8 |
| 20260505211531 | 36 | 12 | 8.7 | 17.4 | 0.00 | 0.00 | 0.00 | 46 | 984.8 |
| 20260505211025 | 37 | 310 | 7.8 | 13.9 | 0.00 | 0.00 | 0.00 | 46 | 984.6 |
| 20260505210524 | 36 | 311 | 7.8 | 16.5 | 0.00 | 0.00 | 0.00 | 47 | 984.7 |
| 20260505210024 | 36 | 309 | 9.6 | 16.5 | 0.00 | 0.00 | 0.00 | 46 | 984.5 |
| 20260505205530 | 36 | 298 | 7.0 | 17.4 | 0.00 | 0.00 | 0.00 | 47 | 984.6 |
| 20260505205027 | 35 | 331 | 11.3 | 17.4 | 0.00 | 0.00 | 0.00 | 47 | 984.7 |
| 20260505204523 | 36 | 360 | 8.7 | 16.5 | 0.00 | 0.00 | 0.00 | 48 | 984.6 |
| 20260505204026 | 35 | 340 | 9.6 | 16.5 | 0.00 | 0.00 | 0.00 | 48 | 984.7 |
| 20260505203522 | 36 | 297 | 9.6 | 15.6 | 0.00 | 0.00 | 0.00 | 47 | 984.7 |
| 20260505203023 | 35 | 326 | 9.6 | 16.5 | 0.00 | 0.00 | 0.00 | 48 | 984.7 |
| 20260505202523 | 36 | 304 | 7.8 | 16.5 | 0.00 | 0.00 | 0.00 | 49 | 984.6 |
| 20260505202028 | 36 | 302 | 10.4 | 16.5 | 0.00 | 0.00 | 0.00 | 47 | 984.7 |
| 20260505201520 | 35 | 355 | 8.7 | 16.5 | 0.00 | 0.00 | 0.00 | 48 | 984.6 |
| 20260505201021 | 35 | 10 | 9.6 | 15.6 | 0.00 | 0.00 | 0.00 | 47 | 984.6 |
| 20260505200521 | 35 | 313 | 8.7 | 17.4 | 0.00 | 0.00 | 0.00 | 46 | 984.6 |
| 20260505200022 | 35 | 300 | 9.6 | 17.4 | 0.00 | 0.00 | 0.00 | 45 | 984.7 |
| 20260505195520 | 35 | 13 | 10.4 | 17.4 | 0.00 | 0.00 | 0.00 | 45 | 984.5 |
| 20260505195020 | 36 | 343 | 9.6 | 16.5 | 0.00 | 0.00 | 0.00 | 44 | 984.5 |
| 20260505194519 | 35 | 311 | 9.6 | 16.5 | 0.00 | 0.00 | 0.00 | 46 | 984.4 |
| 20260505194021 | 35 | 318 | 10.4 | 18.2 | 0.00 | 0.00 | 0.00 | 45 | 984.6 |
| 20260505193517 | 35 | 292 | 9.6 | 18.2 | 0.00 | 0.00 | 0.00 | 45 | 984.6 |
| 20260505193016 | 34 | 322 | 8.7 | 16.5 | 0.00 | 0.00 | 0.00 | 45 | 984.6 |
| 20260505192518 | 35 | 303 | 9.6 | 16.5 | 0.00 | 0.00 | 0.00 | 44 | 984.6 |
| 20260505192016 | 35 | 338 | 8.7 | 20.0 | 0.00 | 0.00 | 0.00 | 46 | 984.5 |
| 20260505191518 | 34 | 346 | 9.6 | 14.8 | 0.00 | 0.00 | 0.00 | 46 | 984.5 |
| 20260505191014 | 34 | 317 | 11.3 | 16.5 | 0.00 | 0.00 | 0.00 | 47 | 984.6 |
| 20260505190512 | 33 | 318 | 11.3 | 17.4 | 0.00 | 0.00 | 0.00 | 47 | 984.4 |
| 20260505190013 | 33 | 294 | 9.6 | 16.5 | 0.00 | 0.00 | 0.00 | 46 | 984.4 |
| 20260505185513 | 33 | 319 | 11.3 | 16.5 | 0.00 | 0.00 | 0.00 | 47 | 984.4 |
| 20260505185012 | 33 | 299 | 11.3 | 16.5 | 0.00 | 0.00 | 0.00 | 46 | 984.3 |
| 20260505184512 | 34 | 338 | 10.4 | 16.5 | 0.00 | 0.00 | 0.00 | 46 | 984.3 |
| 20260505184011 | 34 | 298 | 11.3 | 14.8 | 0.00 | 0.00 | 0.00 | 46 | 984.3 |
| 20260505183514 | 34 | 298 | 9.6 | 13.9 | 0.00 | 0.00 | 0.00 | 46 | 984.3 |
| 20260505183013 | 33 | 304 | 9.6 | 17.4 | 0.00 | 0.00 | 0.00 | 45 | 984.2 |
| 20260505182513 | 33 | 346 | 9.6 | 17.4 | 0.00 | 0.00 | 0.00 | 46 | 984.3 |
| 20260505182013 | 33 | 307 | 10.4 | 14.8 | 0.00 | 0.00 | 0.00 | 46 | 984.2 |
| 20260505181509 | 33 | 307 | 9.6 | 15.6 | 0.00 | 0.00 | 0.00 | 47 | 984.2 |
| 20260505181008 | 33 | 339 | 10.4 | 15.6 | 0.00 | 0.00 | 0.00 | 48 | 984.3 |
| 20260505180507 | 33 | 313 | 8.7 | 15.6 | 0.00 | 0.00 | 0.00 | 48 | 984.4 |
| 20260505180007 | 32 | 318 | 10.4 | 15.6 | 0.00 | 0.00 | 0.00 | 48 | 984.3 |
| 20260505175507 | 32 | 307 | 10.4 | 16.5 | 0.00 | 0.00 | 0.00 | 48 | 984.4 |
| 20260505175009 | 32 | 315 | 10.4 | 16.5 | 0.00 | 0.00 | 0.00 | 50 | 984.4 |
| 20260505174506 | 32 | 309 | 10.4 | 17.4 | 0.00 | 0.00 | 0.00 | 50 | 984.3 |
| 20260505174010 | 32 | 318 | 11.3 | 17.4 | 0.00 | 0.00 | 0.00 | 49 | 984.2 |
| 20260505173505 | 32 | 320 | 9.6 | 17.4 | 0.00 | 0.00 | 0.00 | 49 | 984.2 |
| 20260505173004 | 32 | 289 | 12.2 | 17.4 | 0.00 | 0.00 | 0.00 | 48 | 984.1 |
| 20260505172503 | 32 | 340 | 10.4 | 16.5 | 0.00 | 0.00 | 0.00 | 48 | 984.0 |
| 20260505172003 | 33 | 291 | 11.3 | 16.5 | 0.00 | 0.00 | 0.00 | 47 | 984.0 |
| 20260505171502 | 32 | 331 | 9.6 | 17.4 | 0.00 | 0.00 | 0.00 | 48 | 983.9 |
| 20260505171002 | 32 | 309 | 10.4 | 17.4 | 0.00 | 0.00 | 0.00 | 47 | 984.0 |
| 20260505170501 | 32 | 324 | 8.7 | 16.5 | 0.00 | 0.00 | 0.00 | 49 | 983.9 |
| 20260505170002 | 32 | 297 | 9.6 | 18.2 | 0.00 | 0.00 | 0.00 | 48 | 983.9 |
| 20260505165501 | 32 | 321 | 10.4 | 18.2 | 0.00 | 0.00 | 0.00 | 46 | 983.8 |
| 20260505165001 | 32 | 306 | 10.4 | 18.2 | 0.00 | 0.00 | 0.00 | 47 | 983.9 |
| 20260505164601 | 31 | 299 | 10.4 | 18.2 | 0.00 | 0.00 | 0.00 | 47 | 983.9 |
| 20260505164101 | 31 | 333 | 11.3 | 19.1 | 0.00 | 0.00 | 0.00 | 47 | 983.8 |
| 20260505163604 | 31 | 315 | 11.3 | 19.1 | 0.00 | 0.00 | 0.00 | 47 | 983.9 |
| 20260505163101 | 31 | 320 | 10.4 | 18.2 | 0.00 | 0.00 | 0.00 | 48 | 983.9 |
| 20260505162600 | 31 | 322 | 11.3 | 18.2 | 0.00 | 0.00 | 0.00 | 48 | 983.9 |
| 20260505162100 | 32 | 304 | 10.4 | 15.6 | 0.00 | 0.00 | 0.00 | 48 | 983.7 |
| 20260505161558 | 32 | 303 | 9.6 | 17.4 | 0.00 | 0.00 | 0.00 | 47 | 983.6 |
| 20260505161059 | 32 | 291 | 10.4 | 17.4 | 0.00 | 0.00 | 0.00 | 46 | 983.5 |
| 20260505160557 | 32 | 306 | 7.8 | 16.5 | 0.00 | 0.00 | 0.00 | 46 | 983.5 |
| 20260505153057 | 31 | 342 | 11.3 | 16.5 | 0.00 | 0.00 | 0.00 | 48 | 983.3 |
| 20260505152555 | 31 | 288 | 8.7 | 17.4 | 0.00 | 0.00 | 0.00 | 47 | 983.4 |
| 20260505152054 | 32 | 302 | 10.4 | 17.4 | 0.00 | 0.00 | 0.00 | 47 | 983.4 |
| 20260505151559 | 31 | 350 | 10.4 | 15.6 | 0.00 | 0.00 | 0.00 | 47 | 983.3 |
| 20260505151057 | 31 | 323 | 10.4 | 15.6 | 0.00 | 0.00 | 0.00 | 48 | 983.3 |
| 20260505150553 | 31 | 305 | 9.6 | 13.9 | 0.00 | 0.00 | 0.00 | 49 | 983.2 |
| 20260505140547 | 31 | 325 | 8.7 | 14.8 | 0.00 | 0.00 | 0.00 | 49 | 982.8 |
| 20260505125039 | 28 | 290 | 8.7 | 14.8 | 0.00 | 0.00 | 0.00 | 54 | 982.5 |
| 20260505124539 | 28 | 336 | 7.0 | 14.8 | 0.00 | 0.00 | 0.00 | 54 | 982.4 |
| 20260505124040 | 28 | 294 | 7.8 | 13.0 | 0.00 | 0.00 | 0.00 | 54 | 982.4 |
| 20260505123541 | 27 | 301 | 6.1 | 13.0 | 0.00 | 0.00 | 0.00 | 54 | 982.3 |
| 20260505123047 | 27 | 309 | 8.7 | 13.0 | 0.00 | 0.00 | 0.00 | 54 | 982.3 |
| 20260505122536 | 27 | 306 | 7.8 | 13.0 | 0.00 | 0.00 | 0.00 | 54 | 982.2 |
| 20260505122035 | 27 | 296 | 8.7 | 13.0 | 0.00 | 0.00 | 0.00 | 54 | 982.1 |
| 20260505121535 | 27 | 310 | 8.7 | 13.0 | 0.00 | 0.00 | 0.00 | 54 | 982.1 |
| 20260505121035 | 27 | 329 | 7.8 | 13.0 | 0.00 | 0.00 | 0.00 | 54 | 982.0 |
| 20260505120533 | 27 | 297 | 7.8 | 12.2 | 0.00 | 0.00 | 0.00 | 55 | 982.0 |
| 20260505120044 | 27 | 302 | 7.8 | 13.0 | 0.00 | 0.00 | 0.00 | 55 | 982.0 |
| 20260505115532 | 27 | 308 | 7.8 | 13.0 | 0.00 | 0.00 | 0.00 | 55 | 981.9 |
| 20260505115031 | 27 | 298 | 7.8 | 12.2 | 0.00 | 0.00 | 0.00 | 54 | 981.9 |
| 20260505114532 | 27 | 302 | 7.0 | 11.3 | 0.00 | 0.00 | 0.00 | 54 | 981.8 |
| 20260505114031 | 27 | 306 | 6.1 | 12.2 | 0.00 | 0.00 | 0.00 | 54 | 981.7 |
| 20260505113529 | 27 | 292 | 6.1 | 12.2 | 0.00 | 0.00 | 0.00 | 54 | 981.8 |
| 20260505113029 | 27 | 296 | 7.8 | 12.2 | 0.00 | 0.00 | 0.00 | 53 | 981.8 |
| 20260505112528 | 27 | 325 | 7.8 | 13.9 | 0.00 | 0.00 | 0.00 | 53 | 981.6 |
| 20260505112027 | 28 | 330 | 8.7 | 15.6 | 0.00 | 0.00 | 0.00 | 52 | 981.5 |
| 20260505111533 | 28 | 322 | 10.4 | 15.6 | 0.00 | 0.00 | 0.00 | 52 | 981.4 |
| 20260505111025 | 28 | 313 | 7.8 | 11.3 | 0.00 | 0.00 | 0.00 | 53 | 981.5 |
| 20260505110525 | 28 | 301 | 7.0 | 12.2 | 0.00 | 0.00 | 0.00 | 53 | 981.3 |
| 20260505102022 | 28 | 319 | 7.8 | 13.9 | 0.00 | 0.00 | 0.00 | 54 | 981.1 |
| 20260505101518 | 28 | 298 | 8.7 | 13.9 | 0.00 | 0.00 | 0.00 | 55 | 981.0 |
| 20260505101017 | 28 | 319 | 6.1 | 12.2 | 0.00 | 0.00 | 0.00 | 56 | 981.1 |
| 20260505100517 | 28 | 309 | 6.1 | 11.3 | 0.00 | 0.00 | 0.00 | 56 | 981.0 |
| 20260505100016 | 28 | 317 | 5.2 | 11.3 | 0.00 | 0.00 | 0.00 | 56 | 980.9 |
| 20260505095517 | 28 | 289 | 7.0 | 11.3 | 0.00 | 0.00 | 0.00 | 57 | 980.9 |
| 20260505095017 | 28 | 323 | 4.3 | 11.3 | 0.00 | 0.00 | 0.00 | 57 | 980.8 |
| 20260505094515 | 28 | 336 | 6.1 | 11.3 | 0.00 | 0.00 | 0.00 | 57 | 980.8 |
| 20260505094013 | 28 | 311 | 7.0 | 11.3 | 0.00 | 0.00 | 0.00 | 56 | 980.8 |
| 20260505093513 | 28 | 342 | 6.1 | 11.3 | 0.00 | 0.00 | 0.00 | 56 | 980.8 |
| 20260505093013 | 28 | 295 | 7.0 | 13.9 | 0.00 | 0.00 | 0.00 | 56 | 980.7 |
| 20260505092511 | 28 | 325 | 8.7 | 13.9 | 0.00 | 0.00 | 0.00 | 56 | 980.7 |
| 20260505092011 | 29 | 288 | 7.0 | 11.3 | 0.00 | 0.00 | 0.00 | 56 | 980.6 |
| 20260505091510 | 29 | 324 | 4.3 | 9.6 | 0.00 | 0.00 | 0.00 | 56 | 980.5 |
| 20260505091010 | 29 | 287 | 4.3 | 8.7 | 0.00 | 0.00 | 0.00 | 56 | 980.5 |
| 20260505090509 | 29 | 337 | 4.3 | 9.6 | 0.00 | 0.00 | 0.00 | 56 | 980.5 |
| 20260505090010 | 29 | 341 | 6.1 | 10.4 | 0.00 | 0.00 | 0.00 | 56 | 980.5 |
| 20260505085509 | 29 | 333 | 7.0 | 10.4 | 0.00 | 0.00 | 0.00 | 56 | 980.4 |
| 20260505085009 | 29 | 329 | 5.2 | 9.6 | 0.00 | 0.00 | 0.00 | 56 | 980.3 |
| 20260505084509 | 29 | 343 | 4.3 | 11.3 | 0.00 | 0.00 | 0.00 | 56 | 980.4 |
| 20260505084007 | 29 | 351 | 7.0 | 11.3 | 0.00 | 0.00 | 0.00 | 56 | 980.2 |
| 20260505083509 | 29 | 344 | 7.0 | 12.2 | 0.00 | 0.00 | 0.00 | 56 | 980.2 |
| 20260505083007 | 29 | 333 | 7.8 | 12.2 | 0.00 | 0.00 | 0.00 | 56 | 980.3 |
| 20260505082510 | 29 | 355 | 7.8 | 12.2 | 0.00 | 0.00 | 0.00 | 56 | 980.1 |
| 20260505082005 | 29 | 346 | 7.0 | 15.6 | 0.00 | 0.00 | 0.00 | 56 | 980.1 |
| 20260505081505 | 29 | 325 | 9.6 | 15.6 | 0.00 | 0.00 | 0.00 | 57 | 980.1 |
| 20260505081003 | 29 | 320 | 8.7 | 13.9 | 0.00 | 0.00 | 0.00 | 57 | 980.0 |
| 20260505080506 | 29 | 296 | 8.7 | 13.0 | 0.00 | 0.00 | 0.00 | 57 | 980.0 |
| 20260505080002 | 29 | 340 | 7.8 | 16.5 | 0.00 | 0.00 | 0.00 | 57 | 979.9 |
| 20260505075503 | 30 | 333 | 11.3 | 16.5 | 0.00 | 0.00 | 0.00 | 57 | 980.0 |
| 20260505075002 | 30 | 326 | 9.6 | 14.8 | 0.00 | 0.00 | 0.00 | 57 | 980.0 |
| 20260505074502 | 30 | 277 | 7.8 | 16.5 | 0.00 | 0.00 | 0.00 | 57 | 979.9 |
| 20260505074001 | 30 | 314 | 11.3 | 17.4 | 0.00 | 0.00 | 0.00 | 56 | 979.9 |
| 20260505073503 | 30 | 304 | 10.4 | 17.4 | 0.00 | 0.00 | 0.00 | 56 | 980.0 |
| 20260505073102 | 30 | 341 | 9.6 | 15.6 | 0.00 | 0.00 | 0.00 | 56 | 980.1 |
| 20260505072559 | 30 | 300 | 9.6 | 14.8 | 0.00 | 0.00 | 0.00 | 56 | 980.0 |
| 20260505072058 | 30 | 318 | 10.4 | 14.8 | 0.00 | 0.00 | 0.00 | 55 | 979.9 |
| 20260505071558 | 30 | 333 | 7.8 | 13.9 | 0.00 | 0.00 | 0.00 | 55 | 979.9 |
| 20260505071057 | 30 | 334 | 10.4 | 14.8 | 0.00 | 0.00 | 0.00 | 54 | 980.0 |
| 20260505070556 | 31 | 315 | 8.7 | 14.8 | 0.00 | 0.00 | 0.00 | 54 | 979.9 |
| 20260505070105 | 31 | 309 | 9.6 | 15.6 | 0.00 | 0.00 | 0.00 | 54 | 979.9 |
| 20260505065555 | 31 | 310 | 8.7 | 15.6 | 0.00 | 0.00 | 0.00 | 54 | 980.0 |
| 20260505065054 | 31 | 300 | 7.8 | 15.6 | 0.00 | 0.00 | 0.00 | 54 | 980.0 |
| 20260505064639 | 31 | 333 | 8.7 | 13.9 | 0.00 | 0.00 | 0.00 | 54 | 979.9 |
| 20260505064055 | 31 | 334 | 9.6 | 13.9 | 0.00 | 0.00 | 0.00 | 55 | 980.0 |
| 20260505063555 | 31 | 344 | 10.4 | 13.9 | 0.00 | 0.00 | 0.00 | 55 | 979.9 |
| 20260505063056 | 31 | 309 | 8.7 | 14.8 | 0.00 | 0.00 | 0.00 | 55 | 979.9 |
| 20260505062554 | 31 | 344 | 9.6 | 14.8 | 0.00 | 0.00 | 0.00 | 55 | 979.9 |
| 20260505062053 | 31 | 340 | 11.3 | 14.8 | 0.00 | 0.00 | 0.00 | 54 | 979.9 |
| 20260505061553 | 31 | 302 | 9.6 | 16.5 | 0.00 | 0.00 | 0.00 | 55 | 979.8 |
| 20260505061052 | 31 | 327 | 9.6 | 16.5 | 0.00 | 0.00 | 0.00 | 55 | 979.8 |
| 20260505060553 | 31 | 297 | 8.7 | 15.6 | 0.00 | 0.00 | 0.00 | 55 | 979.8 |
| 20260505060051 | 31 | 337 | 9.6 | 15.6 | 0.00 | 0.01 | 0.00 | 55 | 979.7 |